Home   Weather   Escondido   Past weeks

Flag for USA Past Weather in Escondido, California, USA — Yesterday and Last 2 Weeks

Now
67 °F

Sunny.


Feels Like: 67 °F
Forecast: 53 / 83 °F
Wind: 21 mph from Northeast

Location: Ramona Airport

Current Time: Apr 29, 2017 at 8:43:17 am

Latest Report: Apr 29, 2017 at 7:53 am


Visibility: 10 mi

Pressure: 29.94 "Hg

Humidity: 15%

Dew Point: 17 °F

Location of EscondidoLocation

Past Weather in Escondido — Graph

°F

Escondido Temperature Yesterday

Maximum temperature yesterday: 76 °F (at 12:53 pm)
Minimum temperature yesterday: 47 °F (at 4:53 am)
Average temperature yesterday: 60 °F

High & Low Weather Summary for the Past Weeks

 TemperatureHumidityPressure
High90 °F (Apr 21, 1:53 pm)100% (Apr 14, 6:53 am)30.13 "Hg (Apr 14, 6:53 am)
Low40 °F (Apr 15, 5:53 am)15% (Apr 29, 4:53 am)29.72 "Hg (Apr 28, 3:53 pm)
Average61 °F72%29.93 "Hg
* Reported Apr 14 6:53 am — Apr 29 6:53 am, Escondido, Weather by CustomWeather, © 2017

Note: Actual official high and low records may vary slightly from our data, if they occured in-between our weather recording intervals... More about our weather records

Advertising

Escondido Weather History for the Previous 24 Hours

Scroll right to see more
 ConditionsComfort  
Time TempWeatherWind HumidityBarometerVisibility
6:53 am
Sat, Apr 29
64 °FSunny.10 mph15%29.91 "Hg10 mi
5:53 am63 °FClear.12 mph15%29.89 "Hg10 mi
4:53 am63 °FClear.12 mph15%29.87 "Hg10 mi
3:53 am63 °FClear.10 mph16%29.86 "Hg10 mi
2:53 am64 °FClear.13 mph16%29.83 "Hg10 mi
1:53 am62 °FClear.No wind20%29.83 "Hg10 mi
12:53 am49 °FClear.No wind80%29.84 "Hg10 mi
11:53 pm
Fri, Apr 28
50 °FClear.No wind77%29.82 "Hg10 mi
10:53 pm53 °FClear.No wind69%29.81 "Hg10 mi
9:53 pm54 °FClear.5 mph67%29.80 "Hg10 mi
8:53 pm58 °FClear.5 mph56%29.79 "Hg10 mi
7:53 pm56 °FClear.6 mph62%29.77 "Hg10 mi
6:53 pm65 °FSunny.No wind40%29.76 "Hg10 mi
5:53 pm70 °FSunny.12 mph35%29.75 "Hg10 mi
4:53 pm73 °FSunny.12 mph37%29.73 "Hg10 mi
3:53 pm74 °FSunny.16 mph40%29.72 "Hg10 mi
2:53 pm76 °FSunny.15 mph39%29.73 "Hg10 mi
1:53 pm75 °FSunny.10 mph47%29.74 "Hg10 mi
12:53 pm76 °FSunny.12 mph35%29.75 "Hg10 mi
11:53 am73 °FSunny.6 mph43%29.77 "Hg10 mi
10:53 am70 °FSunny.7 mph55%29.78 "Hg10 mi
9:53 am66 °FSunny.5 mph61%29.78 "Hg10 mi
8:53 am62 °FSunny.5 mph78%29.79 "Hg9 mi
8:12 am58 °FScattered clouds.No wind90%29.82 "Hg7 mi
Weather by CustomWeather, © 2017

See weather overviewHow to use our weather pages